[[{"header":{"parameterUnit":"m.s-1","parameterCategory":1,"la1":30.2991,"la2":30.254,"lo1":-89.0895,"lo2":-89.0444,"dy":0.0017,"dx":0.0017,"nx":28,"ny":28,"refTime":"2025-12-26T09:00:00:Z","depth":0,"parameterNumber":2,"parameterNumberName":"U-component_of_WINDS"},"data":[0,0,0,0,0,0,0,0,0,0,0,0,0,0,0,0,0,0,0,0,0,0,0,0,0,0,0,0,0,0,0,0,0,0,0,0,0,0,0,0,0,0,0,0,0,0,0,0,0,0,0,0,0,0,0,0,0,0,2.0781,2.0782,0,2.0873,2.0874,2.0875,2.0846,2.0844,2.0842,2.084,2.0942,2.0946,2.095,0,0,0,0,0,0,0,0,0,0,0,0,0,2.0586,2.0589,2.0781,2.0782,2.0783,2.0873,2.0874,2.0875,2.0846,2.0844,2.0841,2.0839,2.094,2.0945,2.0951,0,0,0,0,0,0,0,0,0,0,0,0,0,2.0674,2.0591,2.078,2.0779,2.078,2.0873,2.0874,2.0876,2.0847,2.0844,2.0841,2.0838,2.0938,2.0945,2.0952,2.1054,0,0,2.0973,2.0976,0,0,0,0,0,0,0,0,2.0669,2.0681,2.0778,2.0779,2.078,2.0845,2.0843,2.0936,2.0847,2.0821,2.084,2.0836,2.0912,2.0921,2.0945,2.1059,2.1063,2.0973,2.0977,2.098,2.0982,0,0,0,0,0,0,0,2.0663,2.0677,2.0817,2.0779,2.0781,2.0776,2.0785,2.086,2.0883,2.0823,2.0821,2.0832,2.0912,2.0939,2.0947,2.1064,2.0973,2.0979,2.0983,2.0986,2.1268,2.1271,0,0,0,0,0,0,2.0655,2.0672,2.0814,2.082,2.0716,2.0782,2.0792,2.0827,2.0882,2.0887,2.0835,2.0831,2.0928,2.0939,2.0951,2.1075,2.098,2.0987,2.0991,2.1265,2.1269,2.1272,0,0,0,0,0,0,2.0651,2.0668,2.0811,2.0745,2.0763,2.0788,2.0828,2.083,2.0857,2.089,2.0895,2.0857,2.0926,2.0941,2.1028,2.1078,2.099,2.0996,2.1261,2.1266,2.1271,2.1324,0,0,0,0,0,0,2.0645,2.0666,2.0704,2.0746,2.0767,2.0885,2.0831,2.0834,2.0868,2.0863,2.0912,2.0918,2.0925,2.1018,2.1035,2.1086,2.1001,2.1256,2.1263,2.1269,2.1318,2.133,2.1341,0,0,0,0,0,2.0638,2.0716,2.0706,2.0723,2.0814,2.0887,2.0899,2.0904,2.0872,2.0911,2.0933,2.0916,2.1069,2.1027,2.1046,2.11,2.1253,2.1261,2.1269,2.1313,2.1328,2.134,0,0,0,0,0,0,2.0682,2.0722,2.0711,2.0804,2.0842,2.0882,2.0932,2.092,2.097,2.0964,2.097,2.0981,2.1071,2.1094,2.1046,2.1202,2.1157,2.1169,2.1184,2.1199,2.121,2.1203,2.1007,0,0,0,0,0,2.0701,2.0756,2.0789,2.0869,2.0888,2.0907,2.0939,2.0939,2.098,2.0997,2.1025,2.1067,2.1125,2.1163,2.1218,2.132,2.1332,2.1367,2.1378,2.1387,2.1398,2.1456,2.1473,2.1297,2.1297,2.1297,0,0,2.0744,2.0773,2.0807,2.0878,2.0908,2.0966,2.0921,2.0984,2.1028,2.1007,2.1091,2.1113,2.116,2.1256,2.13,2.1278,2.1449,2.1397,2.1404,2.141,2.1466,2.1482,2.1497,2.1303,2.1302,2.1301,0,0,2.0852,2.0879,2.0948,2.0978,2.1023,2.1035,2.1051,2.1093,2.1106,2.119,2.1175,2.1229,2.1328,2.1363,2.1393,2.1515,2.1502,2.1532,2.1593,2.1649,2.1663,2.1676,2.1721,2.1736,2.1543,2.1543,2.1543,0,2.0901,2.0986,2.0986,2.1051,2.1083,2.1064,2.1136,2.1166,2.1228,2.1252,2.1226,2.135,2.138,2.1485,2.1514,2.1539,2.156,2.1528,2.1661,2.1673,2.1685,2.1728,2.1744,2.1546,2.1546,2.1546,2.1545,0,2.1044,2.1103,2.1155,2.1212,2.125,2.1318,2.1331,2.137,2.1367,2.1382,2.1469,2.1505,2.1567,2.1591,2.159,2.1696,2.1682,2.1658,2.1613,2.1705,2.1745,2.1762,2.1551,2.155,2.1549,2.1548,0,0,2.1183,2.1238,2.1258,2.1284,2.1331,2.1379,2.1447,2.1505,2.154,2.1583,2.1642,2.1726,2.1704,2.1739,2.1741,2.1791,2.1886,2.1761,2.1763,2.1785,2.2008,2.2027,2.2045,2.1878,2.1881,2.1883,2.2005,0,2.1296,2.1413,2.1416,2.1524,2.158,2.1563,2.1623,2.166,2.1676,2.1728,2.1747,2.1807,2.1773,2.1794,2.1842,2.1865,2.1932,2.1856,2.1935,2.1938,2.1925,2.2066,2.2086,2.2199,2.202,2.2023,2.2025,0,2.1443,2.1489,2.1603,2.1643,2.1667,2.172,2.1774,2.1823,2.1866,2.1874,2.1913,2.1908,2.198,2.1931,2.2032,2.1981,2.2013,2.203,2.2034,2.2043,2.1988,2.2081,2.2235,2.2253,2.205,2.2048,2.2046,0,2.1535,2.1625,2.1705,2.1728,2.1776,2.1814,2.1837,2.1876,2.1911,2.196,2.1983,2.204,2.2072,2.2118,2.2129,2.2092,2.2231,2.2182,2.2242,2.2242,2.2274,2.2272,2.2437,2.2292,2.2292,2.2291,2.2291,0,2.1662,2.1733,2.1747,2.1796,2.1876,2.1879,2.1958,2.1978,2.2013,2.2068,2.2057,2.2109,2.212,2.2176,2.2185,2.2269,2.2283,2.2293,2.2296,2.2295,2.2294,2.2318,2.2312,2.2296,2.2295,2.2294,2.2293,0,2.1779,2.1791,2.1877,2.1915,2.1927,2.1984,2.2018,2.2066,2.208,2.215,2.2167,2.2191,2.2255,2.227,2.2348,2.2354,2.2453,2.2447,2.2438,2.2439,2.2498,2.2493,2.2686,2.2712,2.2548,2.255,2.2551,0,2.186,2.1914,2.1957,2.1992,2.2016,2.2072,2.2108,2.2113,2.2151,2.2204,2.2247,2.2309,2.236,2.2464,2.249,2.2549,2.2546,2.2609,2.2555,2.2553,2.2549,2.2546,2.2552,2.262,2.2622,2.2623,2.2624,0,2.2003,2.2006,2.2057,2.211,2.2152,2.2195,2.2235,2.2265,2.2277,2.232,2.2385,2.2424,2.2502,2.2565,2.2625,2.2651,2.2641,2.2641,2.2658,2.2659,2.2653,2.2659,2.2469,2.2637,2.2635,2.2634,2.2634,2.2633,2.2106,2.2153,2.2191,2.2248,2.2279,2.2317,2.2365,2.2385,2.2438,2.25,2.2501,2.2572,2.2614,2.2693,2.2722,2.278,2.2761,2.2785,2.2792,2.2798,2.2804,2.2642,2.279,2.279,2.279,2.279,2.2789,0,2.225,2.2273,2.2326,2.2382,2.2427,2.2411,2.2455,2.2495,2.2557,2.2596,2.2645,2.2721,2.2782,2.2812,2.2873,2.2914,2.2911,2.293,2.2928,2.2935,2.2817,2.2797,2.2931,2.2931,2.2931,2.2931,2.2931,2.2931,2.233,2.241,2.2418,2.2513,2.2537,2.2604,2.2631,2.2668,2.2699,2.2783,2.2833,2.2851,2.2887,2.2951,2.3008,2.3015,2.3039,2.3061,2.3067,2.2957,2.2943,2.2929,2.291,2.3066,2.3066,2.3179,2.318,2.3181]},{"header":{"parameterUnit":"m.s-1","parameterCategory":1,"la1":30.2991,"la2":30.254,"lo1":-89.0895,"lo2":-89.0444,"dy":0.0017,"dx":0.0017,"nx":28,"ny":28,"refTime":"2025-12-26T09:00:00:Z","depth":0,"parameterNumber":3,"parameterNumberName":"V-component_of_WINDS"},"data":[0,0,0,0,0,0,0,0,0,0,0,0,0,0,0,0,0,0,0,0,0,0,0,0,0,0,0,0,0,0,0,0,0,0,0,0,0,0,0,0,0,0,0,0,0,0,0,0,0,0,0,0,0,0,0,0,0,0,2.7349,2.7351,0,2.7506,2.7508,2.751,2.7521,2.7519,2.7518,2.7516,2.768,2.7686,2.7692,0,0,0,0,0,0,0,0,0,0,0,0,0,2.7061,2.7066,2.7349,2.7351,2.7353,2.7506,2.7508,2.7511,2.7521,2.7519,2.7517,2.7515,2.7678,2.7685,2.7692,0,0,0,0,0,0,0,0,0,0,0,0,0,2.7199,2.7068,2.7348,2.7377,2.7381,2.7506,2.7508,2.7511,2.7522,2.7519,2.7517,2.7514,2.7676,2.7684,2.7693,2.7802,0,0,2.7721,2.7725,0,0,0,0,0,0,0,0,2.7191,2.721,2.737,2.7375,2.738,2.7491,2.7467,2.7609,2.7523,2.7468,2.7516,2.7513,2.762,2.7633,2.7668,2.7809,2.7816,2.7722,2.7727,2.7731,2.7733,0,0,0,0,0,0,0,2.7182,2.7203,2.7411,2.7373,2.7378,2.7383,2.7399,2.7494,2.7557,2.7473,2.7474,2.7492,2.7622,2.766,2.7672,2.7819,2.7721,2.7729,2.7735,2.7738,2.806,2.8062,0,0,0,0,0,0,2.7166,2.7195,2.7406,2.7416,2.7277,2.739,2.7409,2.7458,2.7556,2.7568,2.7495,2.7492,2.7646,2.7662,2.7678,2.7814,2.7731,2.7739,2.7744,2.8056,2.806,2.8064,0,0,0,0,0,0,2.716,2.7185,2.74,2.7306,2.7333,2.7398,2.7453,2.7463,2.7501,2.7572,2.7584,2.7522,2.7644,2.7665,2.7771,2.7819,2.7743,2.7752,2.8053,2.8058,2.8062,2.8084,0,0,0,0,0,0,2.7152,2.7183,2.7223,2.7307,2.7338,2.7489,2.7456,2.7468,2.7516,2.7515,2.7601,2.7613,2.7644,2.7758,2.778,2.783,2.7759,2.8049,2.8055,2.806,2.808,2.8089,2.8097,0,0,0,0,0,2.7141,2.7223,2.7225,2.7251,2.7391,2.7492,2.751,2.7544,2.752,2.7563,2.7609,2.761,2.781,2.7769,2.7794,2.7848,2.8046,2.8053,2.806,2.8076,2.8087,2.8097,0,0,0,0,0,0,2.7145,2.7235,2.7238,2.7349,2.7413,2.7494,2.7548,2.7555,2.7627,2.7623,2.7662,2.7682,2.7787,2.7828,2.778,2.7959,2.7926,2.7938,2.7929,2.794,2.7949,2.7938,2.7766,0,0,0,0,0,2.7158,2.7232,2.7307,2.7398,2.743,2.7484,2.7529,2.7549,2.7617,2.7644,2.7698,2.7765,2.7843,2.7894,2.7969,2.8085,2.8105,2.8134,2.8143,2.815,2.8161,2.8228,2.8242,2.8087,2.8087,2.8086,0,0,2.7188,2.7246,2.729,2.74,2.7452,2.7529,2.7506,2.7588,2.7646,2.7657,2.7761,2.7803,2.788,2.7991,2.8043,2.8029,2.8208,2.8159,2.8164,2.8172,2.8237,2.8251,2.8264,2.8091,2.8091,2.809,0,0,2.728,2.7331,2.7413,2.7466,2.7544,2.758,2.76,2.768,2.7708,2.7813,2.7823,2.7893,2.8026,2.8081,2.8127,2.8242,2.8247,2.8266,2.8313,2.8377,2.839,2.8401,2.8444,2.8459,2.8276,2.8276,2.8276,0,2.7307,2.7423,2.7455,2.7538,2.7587,2.76,2.7685,2.7734,2.7834,2.7868,2.785,2.8019,2.8071,2.8197,2.8226,2.8261,2.8287,2.8257,2.8385,2.8396,2.8407,2.8449,2.8465,2.8278,2.8278,2.8277,2.8277,0,2.7453,2.7533,2.759,2.7686,2.7741,2.7825,2.7872,2.7924,2.794,2.7978,2.8085,2.8149,2.8238,2.8269,2.8285,2.8399,2.8388,2.8377,2.8344,2.8424,2.8464,2.848,2.8281,2.828,2.8279,2.8279,0,0,2.7552,2.7666,2.7687,2.7731,2.7819,2.7883,2.7967,2.8055,2.81,2.8168,2.8242,2.8355,2.8346,2.8398,2.842,2.8476,2.8567,2.8459,2.8462,2.8479,2.8698,2.8707,2.8725,2.857,2.8573,2.8575,2.8692,0,2.7657,2.7807,2.784,2.797,2.8046,2.806,2.8134,2.8197,2.8235,2.8305,2.8347,2.8428,2.8408,2.844,2.8496,2.8544,2.8612,2.8535,2.864,2.8644,2.8623,2.8746,2.8755,2.8863,2.8708,2.8711,2.8713,0,2.7798,2.787,2.8008,2.8088,2.8121,2.8187,2.8271,2.8338,2.8411,2.8434,2.8493,2.8509,2.86,2.8562,2.8688,2.8635,2.868,2.871,2.8715,2.8728,2.8684,2.8764,2.8898,2.8915,2.8737,2.8735,2.8734,0,2.786,2.7991,2.8092,2.8129,2.8224,2.8271,2.8313,2.8382,2.8434,2.8507,2.8541,2.8624,2.867,2.8735,2.8774,2.8742,2.8899,2.8863,2.8922,2.8922,2.8956,2.8954,2.9101,2.8981,2.8981,2.8981,2.898,0,2.7974,2.8059,2.8121,2.8183,2.8278,2.8316,2.841,2.8452,2.8514,2.8585,2.8602,2.8669,2.8716,2.879,2.8821,2.8922,2.8942,2.8965,2.8973,2.8965,2.8963,2.8997,2.8991,2.8985,2.8984,2.8983,2.8983,0,2.806,2.8105,2.8215,2.8296,2.8319,2.8386,2.8457,2.8518,2.8556,2.8647,2.867,2.873,2.8818,2.8864,2.8973,2.8995,2.9109,2.9111,2.9085,2.9089,2.9146,2.9141,2.9323,2.9349,2.9209,2.9211,2.9212,0,2.8131,2.8196,2.8285,2.8334,2.8377,2.8455,2.8508,2.8547,2.8601,2.869,2.8741,2.883,2.8903,2.9044,2.9098,2.9183,2.9188,2.9246,2.9201,2.9192,2.9192,2.9189,2.9197,2.9255,2.9256,2.9257,2.9258,0,2.8253,2.8272,2.8346,2.843,2.8492,2.856,2.8626,2.8666,2.8716,2.8777,2.8867,2.8924,2.9036,2.9125,2.9214,2.9259,2.9268,2.9271,2.929,2.9284,2.9267,2.9279,2.9109,2.9267,2.9266,2.9266,2.9265,2.9265,2.8335,2.8394,2.8467,2.855,2.8604,2.8667,2.8729,2.8775,2.8851,2.8946,2.8965,2.9061,2.9134,2.9254,2.9301,2.9378,2.9366,2.9392,2.94,2.9406,2.941,2.9253,2.9394,2.9394,2.9394,2.9393,2.9393,0,2.8459,2.8507,2.8583,2.8676,2.8742,2.8744,2.8818,2.8874,2.8958,2.9025,2.9097,2.9202,2.9289,2.935,2.9439,2.9488,2.9495,2.9511,2.9508,2.9519,2.9414,2.939,2.9504,2.9504,2.9504,2.9504,2.9504,2.9504,2.8532,2.8634,2.8662,2.8792,2.8839,2.8933,2.8976,2.9034,2.9088,2.9204,2.9276,2.9316,2.9381,2.9475,2.9555,2.9571,2.9604,2.962,2.9636,2.9538,2.9526,2.9515,2.9493,2.9626,2.9626,2.9735,2.9736,2.9736]}]]